sat.trackr.live / text

‹ back to catalog

SITRO-AIS-63

NORAD 67294 · 2025-313AY

PAYLOAD ACTIVE UNKNOWN

§ Identity

Operator
Country
CIS
Launch date
2025-12-28
Launch site
VOSTO
Launch vehicle
Mass (kg)
RCS (m²)

External: N2YO · Heavens-Above · Gunter

§ Orbital elements

Epoch: 2026-09-20T22:58:07.108608Z

Period
94.33 min
Inclination
97.3865°
Eccentricity
0.0008894
Mean motion
15.26580225 rev/d
Perigee alt
479.9 km
Apogee alt
492.1 km
Semi-major
6,864.2 km
B*
2.4263e-4
RAAN
337.9426°
Arg perigee
28.3139°
Mean anomaly
331.8582°
Rev number
4,058

§ Raw data

SITRO-AIS-631 67294U 25313AY  26263.95702672  .00006282  00000+0  24263-3 0  99962 67294  97.3865 337.9426 0008894  28.3139 331.8582 15.26580225 40580

JSON: /api/v1/satellites/67294 · /tle

For live sub-satellite position, see the globe view (requires WebGL).

§ Visibility from observer

Set your observer location to see the next 7 days of passes ≥ 10°. The values pass through the URL so the page stays shareable.

No JS? Fill the form by hand. The geolocation button needs JavaScript.